sat.trackr.live / text

‹ back to catalog

STARLINK-33569

NORAD 62769 · 2025-015M

PAYLOAD ACTIVE UNKNOWN

§ Identity

Operator
Country
US
Launch date
2025-01-21
Launch site
AFWTR
Launch vehicle
Mass (kg)
RCS (m²)

Purposes: comms

External: N2YO · Heavens-Above · Gunter

§ Orbital elements

Epoch: 2026-09-21T20:04:02.664480Z

Period
93.85 min
Inclination
53.1589°
Eccentricity
0.0002524
Mean motion
15.34401406 rev/d
Perigee alt
461.0 km
Apogee alt
464.4 km
Semi-major
6,840.8 km
B*
1.4489e-4
RAAN
127.7175°
Arg perigee
141.5787°
Mean anomaly
218.5396°
Rev number
9,456

§ Raw data

STARLINK-335691 62769U 25015M   26264.83614195  .00004522  00000+0  14489-3 0  99912 62769  53.1589 127.7175 0002524 141.5787 218.5396 15.34401406 94565

JSON: /api/v1/satellites/62769 · /tle

For live sub-satellite position, see the globe view (requires WebGL).

§ Visibility from observer

Set your observer location to see the next 7 days of passes ≥ 10°. The values pass through the URL so the page stays shareable.

No JS? Fill the form by hand. The geolocation button needs JavaScript.